Location: Unspecified
(0.0000°N, 0.0000°E)
Time: 01:53:45
(UTC+00:00)

Envisat - Visible Passes

Search period start: 23 June 2017 00:00
Search period end: 03 July 2017 00:00
Orbit: 764 x 766 km, 98.2° (Epoch: 21 June)

Date Brightness Start Highest point End Pass type
(mag) Time Alt. Az. Time Alt. Az. Time Alt. Az.
23 Jun 4.8 20:38:16 25° NNW 20:38:16 25° NNW 20:40:17 10° NNW visible
24 Jun 4.6 20:01:06 22° NNE 20:01:06 22° NNE 20:03:12 10° NNE visible
25 Jun 5.2 19:23:57 10° NE 19:23:57 10° NE 19:24:04 10° NE visible
25 Jun 5.5 21:04:09 17° NW 21:04:09 17° NW 21:05:25 10° NW visible
26 Jun 4.6 20:27:00 27° N 20:27:00 27° N 20:29:13 10° N visible
27 Jun 4.7 19:49:50 19° NE 19:49:50 19° NE 19:51:44 10° NNE visible
28 Jun 5.2 20:52:53 21° NW 20:52:53 21° NW 20:54:37 10° NNW visible
29 Jun 4.5 20:15:43 27° NNE 20:15:43 27° NNE 20:18:03 10° N visible
30 Jun 4.9 19:38:34 15° NE 19:38:34 15° NE 19:40:05 10° NNE visible
30 Jun 5.9 21:18:46 12° NW 21:18:46 12° NW 21:19:18 10° NW visible
01 Jul 4.9 20:41:37 25° NNW 20:41:37 25° NNW 20:43:41 10° NNW visible
02 Jul 4.5 20:04:28 25° NNE 20:04:28 25° NNE 20:06:46 10° N visible
